Location: Shepherdstown, WV
(39.4326°N, 77.8042°W)
Time: 20:04:49
(UTC-04:00)

Vanguard 3 - Pass Details

Date: 01 August 2021
Orbit: 510 x 3260 km, 33.3° (Epoch: 22 September)

Event Time Altitude Azimuth Distance (km) Brightness Sun altitude
Rises 02:01:42 0° 283° (WNW) 7,229 12.0 -31.7°
Reaches altitude 10° 02:07:53 10° 272° (W) 6,159 11.5 -31.4°
Enters shadow 02:18:01 24° 243° (WSW) 4,706 10.6 -30.9°
